CT2IRK-11 Weather Reports


time (UTC)temp
C
wind
direction
speed
KPH
gust
KPH
rain 1hr
cm
rain 24hr
cm
rain mn
cm
humidity
%
barometer
mb
20260906060008 19 242 1.6 3.2 0.00 0.00 0.00 99 1012.2
20260906055010 19 211 1.6 4.8 0.00 0.00 0.00 99 1012.1
20260906053005 19 193 1.6 4.8 0.00 0.00 0.00 99 1011.9
20260906052005 19 181 3.2 8.0 0.00 0.00 0.00 99 1011.8
20260906051005 19 193 6.4 9.7 0.00 0.00 0.00 99 1011.6
20260906050004 19 199 1.6 4.8 0.00 0.00 0.00 99 1011.5
20260906045005 18 187 3.2 3.2 0.00 0.00 0.00 99 1011.5
20260906044005 18 169 0.0 4.8 0.00 0.00 0.00 97 1011.5
20260906043005 19 248 0.0 0.0 0.00 0.00 0.00 97 1011.6
20260906042005 19 225 0.0 0.0 0.00 0.00 0.00 97 1011.6
20260906041005 19 202 0.0 0.0 0.00 0.00 0.00 97 1011.6
20260906040005 19 225 0.0 0.0 0.00 0.00 0.00 96 1011.7
20260906035005 20 225 0.0 0.0 0.00 0.00 0.00 95 1011.7
20260906034006 20 10 0.0 0.0 0.00 0.00 0.00 94 1011.7
20260906033006 20 22 0.0 1.6 0.00 0.00 0.00 96 1011.8
20260906031005 20 45 0.0 0.0 0.00 0.00 0.00 96 1012.1
20260906030006 20 11 0.0 0.0 0.00 0.00 0.00 95 1012.1
20260906025005 21 282 0.0 0.0 0.00 0.00 0.00 91 1012.3
20260906024005 21 215 0.0 0.0 0.00 0.00 0.00 89 1012.3
20260906023005 21 260 0.0 0.0 0.00 0.00 0.00 88 1012.1
20260906022005 22 90 0.0 0.0 0.00 0.00 0.00 85 1012.2
20260906020006 22 45 0.0 0.0 0.00 0.00 0.00 86 1012.3
20260906015005 22 45 0.0 0.0 0.00 0.00 0.00 86 1012.5
20260906014005 22 45 0.0 0.0 0.00 0.00 0.00 86 1012.5
20260906012005 22 327 0.0 0.0 0.00 0.00 0.00 83 1012.6
20260906005005 22 199 0.0 0.0 0.00 0.00 0.00 82 1012.5
20260906004005 22 202 0.0 0.0 0.00 0.00 0.00 83 1012.5
20260906003005 22 210 0.0 0.0 0.00 0.00 0.00 83 1012.5
20260906001005 23 224 0.0 0.0 0.00 0.00 0.00 81 1012.6
20260906000004 23 248 0.0 0.0 0.00 0.00 0.00 79 1012.4
20260905235005 23 186 0.0 0.0 0.00 0.00 0.00 79 1012.3
20260905234005 23 157 0.0 0.0 0.00 0.00 0.00 81 1012.3
20260905232005 23 185 0.0 1.6 0.00 0.00 0.00 81 1012.1
20260905231005 23 194 0.0 0.0 0.00 0.00 0.00 81 1012.0
20260905230006 23 178 0.0 1.6 0.00 0.00 0.00 80 1012.0
20260905225005 23 213 0.0 1.6 0.00 0.00 0.00 80 1011.8
20260905223004 24 218 1.6 9.7 0.00 0.00 0.00 77 1011.8
20260905222005 24 204 9.7 11.3 0.00 0.00 0.00 73 1011.7
20260905221005 25 191 0.0 0.0 0.00 0.00 0.00 64 1011.7
20260905220004 26 205 0.0 1.6 0.00 0.00 0.00 61 1011.7
20260905215005 26 216 0.0 1.6 0.00 0.00 0.00 59 1011.6
20260905214004 26 202 0.0 9.7 0.00 0.00 0.00 57 1011.6
20260905213004 27 180 0.0 9.7 0.00 0.00 0.00 56 1011.5
20260905212005 27 191 1.6 11.3 0.00 0.00 0.00 55 1011.6
20260905211005 27 183 3.2 16.1 0.00 0.00 0.00 56 1011.4
20260905210004 27 203 9.7 12.9 0.00 0.00 0.00 58 1011.3
20260905205005 27 217 8.0 11.3 0.00 0.00 0.00 62 1011.0
20260905204005 27 201 1.6 4.8 0.00 0.00 0.00 63 1011.0
20260905203005 27 176 0.0 9.7 0.00 0.00 0.00 63 1010.8
20260905202005 28 174 9.7 11.3 0.00 0.00 0.00 61 1010.6
20260905200004 29 202 0.0 14.5 0.00 0.00 0.00 58 1010.1
20260905195004 30 172 9.7 14.5 0.00 0.00 0.00 57 1009.7
20260905194004 30 199 4.8 12.9 0.00 0.00 0.00 55 1009.7
20260905193005 31 180 6.4 12.9 0.00 0.00 0.00 53 1009.6
20260905191005 32 138 9.7 11.3 0.00 0.00 0.00 43 1009.3
20260905190005 33 160 4.8 9.7 0.00 0.00 0.00 39 1009.0
20260905185005 34 193 0.0 0.0 0.00 0.00 0.00 38 1008.9
20260905184004 34 167 0.0 8.0 0.00 0.00 0.00 37 1008.9
20260905183005 35 166 1.6 9.7 0.00 0.00 0.00 37 1008.9
20260905182005 36 202 6.4 9.7 0.00 0.00 0.00 36 1008.9
20260905181004 36 176 8.0 9.7 0.00 0.00 0.00 33 1008.8
20260905180005 37 209 3.2 11.3 0.00 0.00 0.00 30 1008.9
20260905175005 38 185 1.6 11.3 0.00 0.00 0.00 28 1008.8
20260905174005 38 230 8.0 11.3 0.00 0.00 0.00 27 1008.8
20260905172005 38 226 8.0 16.1 0.00 0.00 0.00 26 1008.7
20260905170004 38 270 8.0 11.3 0.00 0.00 0.00 27 1008.6
20260905165006 39 233 11.3 14.5 0.00 0.00 0.00 26 1008.6
20260905164004 40 248 1.6 11.3 0.00 0.00 0.00 26 1008.6
20260905162005 39 270 11.3 12.9 0.00 0.00 0.00 26 1008.7
20260905160004 40 254 4.8 11.3 0.00 0.00 0.00 25 1008.7
20260905155015 40 270 6.4 11.3 0.00 0.00 0.00 25 1008.7
20260905154006 40 276 6.4 11.3 0.00 0.00 0.00 24 1008.7
20260905153010 40 283 8.0 12.9 0.00 0.00 0.00 24 1008.9
20260905152006 40 233 4.8 11.3 0.00 0.00 0.00 25 1009.0
20260905151006 39 262 1.6 12.9 0.00 0.00 0.00 26 1009.0
20260905150007 39 249 1.6 12.9 0.00 0.00 0.00 26 1009.2
20260905145006 39 252 1.6 11.3 0.00 0.00 0.00 27 1009.2
20260905144006 39 275 3.2 12.9 0.00 0.00 0.00 27 1009.2
20260905143006 40 270 0.0 11.3 0.00 0.00 0.00 27 1009.4
20260905141006 39 251 0.0 9.7 0.00 0.00 0.00 28 1009.5
20260905140005 38 283 0.0 9.7 0.00 0.00 0.00 29 1009.7
20260905134006 39 299 0.0 1.6 0.00 0.00 0.00 29 1009.8
20260905133006 37 270 4.8 14.5 0.00 0.00 0.00 33 1009.9
20260905132005 37 346 1.6 11.3 0.00 0.00 0.00 34 1009.8
20260905131006 37 289 0.0 0.0 0.00 0.00 0.00 35 1009.9
20260905130006 37 17 0.0 0.0 0.00 0.00 0.00 35 1010.0
20260905123006 37 267 1.6 9.7 0.00 0.00 0.00 36 1010.3
20260905122006 36 292 4.8 12.9 0.00 0.00 0.00 35 1010.4
20260905121006 37 343 0.0 0.0 0.00 0.00 0.00 36 1010.7
20260905115006 33 338 0.0 0.0 0.00 0.00 0.00 41 1010.8
20260905114006 33 62 0.0 0.0 0.00 0.00 0.00 42 1010.8
20260905113006 32 325 0.0 0.0 0.00 0.00 0.00 45 1011.0
20260905112006 32 5 0.0 9.7 0.00 0.00 0.00 45 1011.0
20260905110007 31 45 4.8 9.7 0.00 0.00 0.00 47 1011.2
20260905105006 32 33 0.0 14.5 0.00 0.00 0.00 43 1011.3
20260905104005 31 28 9.7 12.9 0.00 0.00 0.00 45 1011.3
20260905103005 30 50 9.7 12.9 0.00 0.00 0.00 48 1011.5
20260905102006 30 37 9.7 12.9 0.00 0.00 0.00 51 1011.6
20260905101005 30 22 8.0 9.7 0.00 0.00 0.00 54 1011.4
20260905095006 29 309 0.0 0.0 0.00 0.00 0.00 57 1011.5
20260905094006 28 63 0.0 0.0 0.00 0.00 0.00 59 1011.5
20260905091006 26 279 0.0 0.0 0.00 0.00 0.00 65 1011.4
20260905090005 26 338 0.0 0.0 0.00 0.00 0.00 67 1011.3
20260905085006 25 352 0.0 0.0 0.00 0.00 0.00 71 1011.2
20260905084006 24 22 0.0 0.0 0.00 0.00 0.00 71 1011.2
20260905083005 25 28 0.0 0.0 0.00 0.00 0.00 69 1011.1
20260905082005 23 22 0.0 0.0 0.00 0.00 0.00 72 1011.0
20260905081005 23 5 0.0 0.0 0.00 0.00 0.00 73 1011.1
20260905075006 23 32 0.0 0.0 0.00 0.00 0.00 75 1011.2
20260905074006 22 13 0.0 0.0 0.00 0.00 0.00 78 1011.2
20260905073008 21 338 0.0 0.0 0.00 0.00 0.00 83 1011.1
20260905072006 21 273 0.0 0.0 0.00 0.00 0.00 84 1011.1
20260905070007 20 38 0.0 0.0 0.00 0.00 0.00 90 1010.6
20260905065005 19 25 0.0 0.0 0.00 0.00 0.00 90 1010.6
20260905064006 19 87 0.0 0.0 0.00 0.00 0.00 91 1010.6
20260905063005 19 68 0.0 0.0 0.00 0.00 0.00 90 1010.5
20260905061007 19 125 0.0 0.0 0.00 0.00 0.00 89 1010.3